Flag for Belarus Weather past 2 weeks in Barysaw, Belarus

Now
32 °F

Light snow. Low clouds.


Feels Like: 25 °F
Forecast: 26 / 33 °F
Wind: 8 mph from East

Location: Minsk

Current Time: Oct 22, 2014 at 9:31:11 AM

Latest Report: Oct 22, 2014 at 9:00 AM


Visibility: N/A

Pressure: 29.83 "Hg

Humidity: 100%

Dew point: 32 °F

Location of BarysawLocation

Historic Weather in Barysaw — Graph

°F

Barysaw temperature yesterday

Maximum temperature yesterday: 55 °F (at 12:30 PM)
Minimum temperature yesterday: 41 °F (at 11:30 PM)
Average temperature yesterday: 50 °F

Past Weeks' High & Low Weather Summary

 TemperatureHumidityPressure
High68 °F (Oct 10, 3:00 PM)100% (Oct 11, 7:00 AM)30.54 "Hg (Oct 11, 7:00 AM)
Low21 °F (Oct 19, 2:30 AM)40% (Oct 14, 3:00 PM)29.50 "Hg (Oct 20, 10:00 PM)
Average49 °F81%29.95 "Hg
* Reported Oct 7 8:00 AM — Oct 22 8:30 AM, Barysaw, Weather by CustomWeather, © 2014

Note: Actual official high and low records may vary slightly from our data, if they occured in-between our weather recording intervals... More about our weather records

Advertising

Barysaw weather history for previous 24 hours

 ConditionsComfort  
Time TempWeatherWind HumidityBarometerVisibility
8:30 AM
Oct 22
32 °FLight snow. Low clouds.8 mph100%29.83 "HgN/A
8:00 AM34 °FLow clouds.10 mph93%29.80 "Hg4 mi
7:30 AM34 °FLow clouds.13 mph93%29.77 "HgN/A
7:00 AM34 °FFog.10 mph100%29.77 "Hg3 mi
6:30 AM34 °FLow clouds.13 mph100%29.77 "Hg4 mi
6:00 AM36 °FFog.10 mph93%29.77 "Hg3 mi
5:30 AM36 °FFog.10 mph93%29.77 "Hg3 mi
5:00 AM36 °FLow clouds.10 mph100%29.74 "Hg5 mi
4:30 AM36 °FLow clouds.8 mph100%29.74 "Hg4 mi
3:30 AM37 °FLow clouds.8 mph93%29.74 "Hg4 mi
3:00 AM37 °FLow clouds.8 mph100%29.74 "Hg4 mi
2:30 AM37 °FLow clouds.8 mph100%29.71 "Hg4 mi
2:00 AM37 °FLow clouds.8 mph100%29.71 "Hg4 mi
1:54 AM39 °FFog.8 mph100%29.71 "Hg3 mi
1:30 AM39 °FPassing clouds.10 mph100%29.71 "HgN/A
1:00 AM41 °FPassing clouds.8 mph93%29.71 "HgN/A
12:30 AM41 °FPassing clouds.8 mph93%29.71 "HgN/A
12:00 AM41 °FPassing clouds.8 mph93%29.68 "HgN/A
11:30 PM
Oct 21
41 °FPassing clouds.10 mph93%29.68 "HgN/A
11:00 PM43 °FPassing clouds.8 mph93%29.68 "HgN/A
10:30 PM43 °FPassing clouds.8 mph93%29.68 "HgN/A
10:00 PM45 °FPassing clouds.10 mph93%29.68 "HgN/A
9:30 PM46 °FPassing clouds.8 mph93%29.68 "HgN/A
9:00 PM46 °FPassing clouds.8 mph93%29.65 "HgN/A
8:45 PM46 °FPassing clouds.8 mph93%29.65 "HgN/A
8:30 PM46 °FPassing clouds.6 mph93%29.65 "HgN/A
8:00 PM48 °FPassing clouds.8 mph94%29.65 "HgN/A
7:47 PM46 °FPassing clouds.3 mph100%29.62 "HgN/A
7:30 PM46 °FPassing clouds.3 mph100%29.62 "HgN/A
7:00 PM46 °FFog.3 mph93%29.62 "HgN/A
6:54 PM48 °FFog.3 mph94%29.62 "HgN/A
6:30 PM48 °FBroken clouds.6 mph94%29.62 "HgN/A
6:00 PM50 °FPartly sunny.6 mph94%29.62 "HgN/A
5:30 PM50 °FSprinkles. Partly sunny.8 mph94%29.62 "HgN/A
5:00 PM52 °FPartly sunny.6 mph82%29.62 "HgN/A
4:30 PM52 °FPartly sunny.6 mph82%29.59 "HgN/A
4:00 PM54 °FPartly sunny.8 mph82%29.59 "HgN/A
3:30 PM52 °FSprinkles. Partly sunny.10 mph88%29.59 "HgN/A
3:00 PM54 °FPartly sunny.10 mph77%29.59 "HgN/A
2:30 PM54 °FPartly sunny.10 mph82%29.59 "HgN/A
2:00 PM54 °FPartly sunny.13 mph77%29.59 "HgN/A
1:30 PM54 °FPartly sunny.10 mph77%29.59 "HgN/A
1:00 PM54 °FPartly sunny.13 mph77%29.56 "HgN/A
12:30 PM55 °FPartly sunny.13 mph77%29.56 "HgN/A
12:00 PM54 °FPartly sunny.10 mph88%29.56 "HgN/A
11:30 AM54 °FPartly sunny.6 mph88%29.56 "HgN/A
11:00 AM52 °FPartly sunny.6 mph94%29.56 "HgN/A
10:30 AM52 °FPartly sunny.6 mph94%29.56 "HgN/A
10:00 AM50 °FPartly sunny.8 mph100%29.56 "HgN/A
9:30 AM50 °FSprinkles. Partly sunny.8 mph100%29.56 "HgN/A
9:00 AM50 °FSprinkles. Partly sunny.8 mph94%29.53 "HgN/A
Weather by CustomWeather, © 2014

See weather overviewHow to use our weather pages